This is the latest recevied weather packets stored in our database for station/object EA1CUE-WX. If no packets are shown the sender has not sent any weather packets the latest 10 day(s).
| Time | Temp. | Humidity | Pressure | Rain* | Wind** | Luminosity | Snow |
|---|---|---|---|---|---|---|---|
| 1777894125 | 11.67° C | 45% | 1013.5 hPa | 0 mm | - | - | - |
| 1777893825 | 11.67° C | 44% | 1013.6 hPa | 0 mm | - | - | - |
| 1777893526 | 12.22° C | 43% | 1013.5 hPa | 0 mm | - | - | - |
| 1777893226 | 12.78° C | 40% | 1013.6 hPa | 0 mm | - | - | - |
| 1777892925 | 12.22° C | 40% | 1013.5 hPa | 0 mm | - | - | - |
| 1777892626 | 11.67° C | 40% | 1013.6 hPa | 0 mm | - | - | - |
| 1777892325 | 11.67° C | 42% | 1013.7 hPa | 0 mm | - | - | - |
| 1777892026 | 11.11° C | 31% | 1013.7 hPa | 0 mm | - | - | - |
| 1777891726 | 10.56° C | 34% | 1013.7 hPa | 0 mm | - | - | - |
| 1777891426 | 10.56° C | 34% | 1013.8 hPa | 0 mm | - | - | - |
| 1777891126 | 10.56° C | 29% | 1013.8 hPa | 0 mm | - | - | - |
| 1777890825 | 10.56° C | 34% | 1013.8 hPa | 0 mm | - | - | - |
| 1777890526 | 11.11° C | 33% | 1013.8 hPa | 0 mm | - | - | - |
| 1777890225 | 11.67° C | 31% | 1013.8 hPa | 0 mm | - | - | - |
| 1777889925 | 11.11° C | 19% | 1013.8 hPa | 0 mm | - | - | - |
| 1777889626 | 10.56° C | 17% | 1013.8 hPa | 0 mm | - | - | - |
| 1777889325 | 10° C | 16% | 1013.9 hPa | 0 mm | - | - | - |
| 1777889025 | 10° C | 18% | 1013.8 hPa | 0 mm | - | - | - |
| 1777888726 | 10.56° C | 20% | 1013.9 hPa | 0 mm | - | - | - |
| 1777888425 | 10.56° C | 20% | 1013.8 hPa | 0 mm | - | - | - |
| 1777888125 | 10.56° C | 14% | 1013.7 hPa | 0 mm | - | - | - |
| 1777887825 | 10° C | 11% | 1013.8 hPa | 0 mm | - | - | - |
| 1777887526 | 10° C | 4% | 1013.8 hPa | 0 mm | - | - | - |
| 1777887226 | 10° C | 14% | 1013.8 hPa | 0 mm | - | - | - |
| 1777886926 | 10.56° C | 5% | 1013.7 hPa | 0 mm | - | - | - |
* Rain latest hour (hover to see other rain measurements)
** Current wind speed in m/s (hover to see current wind gust speed)